STARLINK-5325 (55292 NORAD) Tracking and Keplerian Element Data

This shows tracking and keplerian element data for the satellite.

Feedback or suggestion? Click here.




ElementValue
Catalog55292
NameSTARLINK-5325
Epoch Orbit1739
Epoch Day127.11422078
Epoch Year2023
RAAN126.4457
Inclination70
Eccentricity0.0003465
Argument of Perigee270.8464
Mean Anonmoly89.2335
Mean Motion15.69777482
Decay Rate-0.00032673
L11 55292U 23010Z 23127.11422078 -.00032673 00000+0 -27266-3 0 9997
L22 55292 70.0000 126.4457 0003465 270.8464 89.2335 15.69777482 17396



Live tracking and technical data element details for STARLINK-5325 (NORAD 55292). STARLINK-5325 can be tracked NOW for your location showing map with azimuth and elevation plus other details from your city location.







IsCatalogInMostPopularTable: catalog: 55292, numindb: 1
Update: records affected: 1



GetName: 55292 STARLINK-5325

Hit Count: updated at: Mon, 05 Jun 2023 21:13:58 GMT